Showing default

YAOGAN-40 01B, 57832

Orbit data source: Space-Track

YAOGAN-40 01B, 57832 is a payload satellite owned by CAST (CN) in LEO that was launched on Sun, 10 Sep 2023 UTC via a CHANG ZHENG 6A launch vehicle from the Taiyaun Space Center, China (TSC). Payload-class satellites include a variety of spacecraft equipped with specific instruments for various scientific and technological missions. These include communications satellites like Starlink; space stations such as the ISS; scientific satellites like the Hubble; Earth observation satellites from companies like Planet Labs, Umbra, and HawkEye 360; GPS; miniature CubeSats for education and research; and military/defense satellites.

Loading next visibility...
Identifier
57832, 2023-139C
Orbit
LEO
Country
Flag of CNCN / PRC
Related business
Manufacturer
DFH
Mission
Operational Defense Sigint
Bus & Motor
YG40, Unknown motor
Mass
~500 kg wet, ~500 kg dry
Launch date (UTC)
2023-09-10 (3 years ago)
Launch vehicle
CHANG ZHENG 6A
Launch site
Taiyaun Space Center, China (TSC)
Object type
Payload
Rocket body
Debris
Shape & HBR
Box + 2 Pan, 2.0 m
Radar Cross Section
5.141 m², Large (>1 m²)

Expand to show TLE details & history
Last TLE update: 21 hours ago

TLE from 21 hours ago
0 YAOGAN-40 01B
1 57832U 23139C   26172.54556899  .00000104  00000-0  45939-4 0  9991
2 57832  85.9909 257.9762 0002358 102.8275 257.3171 14.12447589143322
Epoch: 2026-06-21T13:05Z
TLE epoch observation values (Epoch: 2026-06-21T13:05:37.160Z)
Latitude
-0.0001°
Longitude
151.82706°
Altitude
854.397 km
Speed
7.425 km/s
True Right ascension
17h 11m 54s
True Declination
0° 00' 00"
Sunlit
Object was in full shadow at epoch
Visualization orbit readout
Latitude
Unknown
Longitude
Unknown
Altitude
Unknown
Speed
Unknown
Apparent Right ascension
Unknown
Apparent Declination
Unknown
Sunlit
N/A
Visualization observer readout
Local Sidereal Time
21:32:32
Azimuth
Unknown
Elevation
Unknown
Doppler factor
Unknown
Orbital elements
Apogee altitude
849.716 km
Perigee altitude
846.308 km
Semi-major axis
7,226.149 km
Eccentricity
0.00024
Inclination
85.9909°
RAAN
257.9762°
Arg. of periapsis
102.8275°
True anomaly
257.29074°
Mean anomaly
257.3171°
Eccentric anomaly
257.30392°
Mean motion
3.53332 °/min
Orbital period
101.89 mins
BSTAR
0.000045939
Loading maneuver chart data...
Computing Atmospheric mass density...
Loading historical data...
Loading historical data...
Loading historical data...
Loading historical data...
Loading historical data...
Loading historical data...
Loading historical data...
Other satellites on launch #139 in the year 2023 (2023-09-10 UTC)

Documentation

Showing up to 5 results
|